Weather History for Auckland, New Zealand

Change the Weather History Date:

Friday, September 20, 2013

  Actual Average Record
Temperature  
Mean Temperature 62 °F -  
Max Temperature 66 °F 60 °F 66 °F (2003)
Min Temperature 57 °F 49 °F 37 °F (1996)
Degree Days  
Heating Degree Days 4    
Growing Degree Days 12 (Base 50)    
Moisture  
Dew Point 58 °F    
Average Humidity 90    
Maximum Humidity 100    
Minimum Humidity 78    
Precipitation  
Precipitation 0.00 in 0.11 in - ()
Sea Level Pressure  
Sea Level Pressure 30.03 in    
Wind  
Wind Speed 12 mph ()    
Max Wind Speed 18 mph    
Max Gust Speed -    
Visibility 6.2 miles    
Events Rain    
Averages and records for this station are not official NWS values.
T = Trace of Precipitation, MM = Missing Value Source: Averaged Metar Reports

Daily Weather History Graph

Daily Weather History Graph

Search for Another Location

Airport:

Trip Planner

Search our weather history database for the weather conditions in past years. The results will help you decide how hot, cold, wet, or windy it might be!

Date:

Astronomy

Sep. 20, 2013 Rise Set
Actual Time 6:13 AM NZST 6:15 PM NZST
Civil Twilight 5:48 AM NZST 6:41 PM NZST
Nautical Twilight 5:17 AM NZST 7:11 PM NZST
Astronomical Twilight 4:47 AM NZST 7:42 PM NZST
Moon 7:05 PM NZST 6:12 AM NZST
Length of Visible Light 12h 53m
Length of Day
12h 01m
Full, 100% of the Moon is Illuminated
Sep 20
Full
Sep 27
Last Quarter
Oct 5
New
Oct 12
First Quarter
Oct 19
Full

Hourly Weather History & Observations

Time (NZST) Temp. Dew Point Humidity Pressure Visibility Wind Dir Wind Speed Gust Speed Precip Events Conditions
12:00 AM 57.2 °F 55.4 °F 94% 30.12 in 6.2 mi North 18.4 mph - N/A Rain Light Rain Showers
12:30 AM 57.2 °F 55.4 °F 94% 30.09 in 6.2 mi North 16.1 mph - N/A   Overcast
1:00 AM 57.2 °F 55.4 °F 94% 30.09 in 6.2 mi North 17.3 mph - N/A   Overcast
1:30 AM 57.2 °F 55.4 °F 94% 30.09 in 6.2 mi North 18.4 mph - N/A   Overcast
2:00 AM 57.2 °F 55.4 °F 94% 30.06 in 6.2 mi NNE 18.4 mph - N/A   Overcast
2:30 AM 59.0 °F 55.4 °F 88% 30.06 in 6.2 mi North 16.1 mph - N/A   Overcast
3:00 AM 59.0 °F 55.4 °F 88% 30.06 in 6.2 mi North 17.3 mph - N/A   Overcast
3:30 AM 59.0 °F 55.4 °F 88% 30.06 in 6.2 mi North 16.1 mph - N/A   Mostly Cloudy
4:00 AM 59.0 °F 55.4 °F 88% 30.04 in 6.2 mi North 13.8 mph - N/A   Mostly Cloudy
4:30 AM 59.0 °F 55.4 °F 88% 30.04 in 6.2 mi North 13.8 mph - N/A   Overcast
5:00 AM 57.2 °F 57.2 °F 100% 30.04 in 5.6 mi North 11.5 mph - N/A Rain Light Rain Showers
5:30 AM 57.2 °F 57.2 °F 100% 30.04 in 6.2 mi NNE 10.4 mph - N/A   Mostly Cloudy
6:00 AM 59.0 °F 57.2 °F 94% 30.04 in 6.2 mi NNE 9.2 mph - N/A   Overcast
6:30 AM 59.0 °F 57.2 °F 94% 30.04 in 6.2 mi NNE 11.5 mph - N/A   Overcast
7:00 AM 59.0 °F 57.2 °F 94% 30.04 in 6.2 mi NNE 11.5 mph - N/A   Mostly Cloudy
7:30 AM 59.0 °F 57.2 °F 94% 30.04 in 6.2 mi North 12.7 mph - N/A   Mostly Cloudy
8:00 AM 60.8 °F 57.2 °F 88% 30.06 in 6.2 mi North 11.5 mph - N/A   Mostly Cloudy
8:30 AM 60.8 °F 59.0 °F 94% 30.06 in 6.2 mi North 13.8 mph - N/A Rain Light Rain Showers
9:30 AM 60.8 °F 59.0 °F 94% 30.06 in 6.2 mi North 9.2 mph - N/A Rain Light Rain Showers
10:00 AM 60.8 °F 59.0 °F 94% 30.06 in 6.2 mi North 10.4 mph - N/A Rain Light Rain Showers
10:30 AM 60.8 °F 59.0 °F 94% 30.06 in 6.2 mi North 6.9 mph - N/A Rain Light Rain Showers
11:00 AM 62.6 °F 60.8 °F 94% 30.04 in 6.2 mi NNW 9.2 mph - N/A Rain Light Rain Showers
11:30 AM 64.4 °F 60.8 °F 88% 30.04 in 6.2 mi NNW 15.0 mph - N/A   Overcast
12:00 PM 64.4 °F 60.8 °F 88% 30.04 in 6.2 mi NNW 11.5 mph - N/A   Overcast
12:30 PM 64.4 °F 59.0 °F 83% 30.04 in 6.2 mi NW 12.7 mph - N/A Rain Light Rain Showers
1:00 PM 66.2 °F 59.0 °F 78% 30.01 in 6.2 mi NW 13.8 mph - N/A Rain Light Rain
1:30 PM 64.4 °F 59.0 °F 83% 30.01 in 6.2 mi North 11.5 mph - N/A Rain Light Rain Showers
2:00 PM 66.2 °F 59.0 °F 78% 29.98 in 6.2 mi North 11.5 mph - N/A   Partly Cloudy
2:30 PM 66.2 °F 60.8 °F 83% 29.98 in 6.2 mi NNE 13.8 mph - N/A   Scattered Clouds
3:00 PM 66.2 °F 60.8 °F 83% 29.98 in 6.2 mi North 10.4 mph - N/A   Mostly Cloudy
3:30 PM 66.2 °F 59.0 °F 78% 29.98 in 6.2 mi North 11.5 mph - N/A   Mostly Cloudy
4:00 PM 64.4 °F 59.0 °F 83% 29.98 in 6.2 mi North 15.0 mph - N/A   Mostly Cloudy
4:30 PM 66.2 °F 59.0 °F 78% 29.95 in 6.2 mi NNE 12.7 mph - N/A   Scattered Clouds
5:00 PM 64.4 °F 60.8 °F 88% 29.95 in 6.2 mi NNE 16.1 mph - N/A   Partly Cloudy
5:30 PM 62.6 °F 59.0 °F 88% 29.98 in 6.2 mi NNE 12.7 mph - N/A   Mostly Cloudy
6:00 PM 62.6 °F 59.0 °F 88% 29.98 in 6.2 mi NNE 11.5 mph - N/A   Mostly Cloudy
6:30 PM 60.8 °F 59.0 °F 94% 29.98 in 6.2 mi North 12.7 mph - N/A   Mostly Cloudy
7:00 PM 60.8 °F 59.0 °F 94% 30.01 in 6.2 mi North 11.5 mph - N/A Rain Light Rain Showers
7:30 PM 60.8 °F 59.0 °F 94% 30.01 in 6.2 mi NNE 9.2 mph - N/A Rain Light Rain Showers
8:00 PM 59.0 °F 59.0 °F 100% 30.01 in 6.2 mi North 9.2 mph - N/A   Partly Cloudy
8:30 PM 59.0 °F 59.0 °F 100% 30.01 in 6.2 mi North 8.1 mph - N/A   Partly Cloudy
9:00 PM 60.8 °F 59.0 °F 94% 30.01 in 6.2 mi North 9.2 mph - N/A   Mostly Cloudy
9:30 PM 60.8 °F 57.2 °F 88% 30.04 in 6.2 mi North 11.5 mph - N/A   Mostly Cloudy
10:00 PM 59.0 °F 57.2 °F 94% 30.04 in 6.2 mi North 10.4 mph - N/A   Mostly Cloudy
10:30 PM 59.0 °F 57.2 °F 94% 30.04 in 6.2 mi NNE 5.8 mph - N/A   Mostly Cloudy
11:00 PM 59.0 °F 57.2 °F 94% 30.04 in 6.2 mi NE 5.8 mph - N/A   Overcast
11:30 PM 59.0 °F 57.2 °F 94% 30.01 in 6.2 mi NNE 6.9 mph - N/A   Mostly Cloudy